Lid_Strength_Index
12 12 11 12 12 12 13 13 16 13 14 11 10 9 8 7 7 7 7 6 6 5 5 4 4 4 4 3 3 3 2 2 2 2 2 2 2 2 2 2 2 1 1 2
14 12 12 13 11 11 12 12 13 12 13 9 8 8 8 7 7 7 7 6 5 5 5 4 4 4 3 4 4 2 2 2 2 2 2 2 2 2 1 2 1 1 2 3
17 13 13 16 13 12 12 10 11 14 12 9 10 9 9 8 7 7 6 6 5 5 4 4 4 4 4 4 3 3 2 2 2 2 2 2 2 2 2 2 2 2 3 4
17 15 21 13 10 10 11 10 9 10 9 9 9 8 7 7 6 6 6 5 5 4 4 4 4 4 4 4 3 2 3 2 2 2 2 2 2 2 2 2 3 3 4 4
18 18 14 13 11 12 13 13 10 10 10 9 8 8 8 6 6 5 5 4 4 4 4 5 4 4 4 4 3 3 3 3 2 2 2 2 2 3 3 3 3 3 4 4
16 19 20 14 10 8 9 16 9 9 9 9 8 12 10 6 6 6 5 4 4 4 4 5 5 3 4 4 3 3 3 2 2 2 2 2 3 3 3 3 3 3 3 4
16 18 15 13 11 9 16 16 9 8 8 8 10 8 6 6 6 6 4 4 3 4 5 5 5 4 4 4 4 3 2 2 2 2 2 2 3 3 3 2 3 3 4 4
15 18 19 9 11 13 10 8 8 7 8 7 7 7 6 5 5 5 4 4 4 5 5 5 5 3 4 5 4 3 3 2 2 2 2 2 3 3 2 3 4 4 4 4
14 14 12 9 8 7 7 8 7 8 8 7 7 7 6 7 6 6 4 4 4 5 5 6 5 3 4 4 4 3 2 3 2 2 2 2 3 3 4 4 4 4 4 4
12 11 10 9 7 7 7 7 7 7 8 7 8 7 7 7 7 6 5 4 4 5 6 6 5 3 3 4 3 2 3 3 2 3 3 3 3 3 3 3 4 3 3 4
11 10 9 8 8 7 7 7 7 7 7 7 7 8 8 8 8 7 5 5 4 5 6 6 5 4 3 3 2 3 3 3 3 3 3 3 5 4 3 3 2 3 3 3
13 8 9 9 7 6 7 7 7 7 8 7 7 7 8 8 8 7 6 5 4 4 4 6 5 3 2 3 2 2 3 3 3 3 3 4 6 8 12 11 11 9 7 4
8 6 6 6 5 6 7 6 7 7 7 7 7 7 8 7 8 7 6 6 5 4 3 4 5 4 2 3 2 2 3 3 3 3 3 4 5 6 6 8 11 12 11 9
6 6 7 6 7 6 6 6 6 7 7 7 7 7 7 8 6 7 7 6 6 5 3 3 4 5 3 3 2 2 3 7 3 3 3 3 4 5 6 6 5 6 11 11
6 6 6 6 6 7 6 6 8 8 8 7 7 7 7 8 8 6 6 6 6 5 3 4 3 3 2 3 3 2 3 3 3 3 3 4 3 5 5 6 6 7 8 10
7 7 6 7 7 7 8 8 9 8 8 7 7 7 7 7 8 7 6 6 6 7 6 5 6 4 3 3 4 3 2 6 5 3 4 4 3 3 4 5 6 7 5 5
8 9 8 8 8 8 8 8 8 8 8 8 8 7 7 7 7 8 7 6 6 8 8 8 9 5 6 5 4 4 3 4 6 3 3 3 3 3 3 4 5 6 6 6
6 7 8 7 7 8 8 8 8 8 8 7 7 7 8 8 8 8 8 7 9 9 10 10 10 7 7 9 8 5 4 4 4 3 3 3 3 3 3 3 4 4 5 7
5 6 7 7 7 7 7 8 7 7 8 8 8 8 8 8 8 8 7 9 9 11 11 10 12 9 9 11 12 7 4 4 4 4 4 7 7 4 3 3 3 3 4 5
5 5 5 6 6 7 7 7 7 7 8 8 8 9 10 10 9 9 9 10 10 10 11 11 10 9 10 10 13 8 7 5 3 4 5 5 5 6 6 8 3 2 3 4
5 5 6 6 7 7 7 7 7 8 8 8 9 9 10 10 10 10 11 11 10 11 11 11 10 10 11 12 12 9 6 6 6 4 3 5 5 5 5 5 6 5 3 2
5 5 5 6 6 7 7 7 7 7 8 8 9 9 10 11 10 11 10 11 11 13 12 11 10 13 13 15 10 9 7 6 6 6 5 4 5 5 5 5 5 5 5 5
4 5 5 4 6 6 6 6 7 7 7 8 9 10 10 11 11 12 13 11 11 12 11 11 14 14 15 9 9 8 8 7 6 6 5 4 4 4 5 5 5 5 5 6
5 4 5 5 4 5 7 7 7 7 7 7 9 9 10 11 11 11 11 12 13 13 12 13 13 15 14 9 9 7 7 6 6 6 6 10 5 3 3 4 5 5 5 7
4 4 4 4 7 6 6 7 7 7 7 8 8 9 9 10 11 11 11 12 13 13 12 13 14 14 11 10 10 10 9 8 9 7 5 5 4 4 3 3 3 5 5 5
5 6 4 4 6 5 6 7 8 8 8 9 9 9 9 9 10 10 10 11 12 13 13 13 13 12 12 12 12 11 11 11 10 10 9 8 8 8 7 5 4 4 4 5
6 6 6 6 6 5 6 6 8 9 8 9 9 9 10 10 10 10 11 11 11 12 12 13 13 14 13 13 13 12 12 12 13 12 11 11 11 10 10 9 8 7 6 5